Weather History for KDFW - January, 2013

Change the Weather History Date:

Monday, January 21, 2013

  Actual Average Record
Temperature  
Mean Temperature 48 °F 46 °F  
Max Temperature 56 °F 57 °F 79 °F (1952)
Min Temperature 39 °F 36 °F 7 °F (1935)
Degree Days  
Heating Degree Days 17 19  
Month to date heating degree days 409 410  
Since 1 July heating degree days 1149 1322  
Cooling Degree Days 0 0  
Month to date cooling degree days 0 0  
Year to date cooling degree days 0 0  
Moisture  
Dew Point 29 °F    
Average Humidity 59    
Maximum Humidity 83    
Minimum Humidity 35    
Precipitation  
Precipitation 0.00 in 0.07 in 3.09 in (1923)
Month to date precipitation 3.67 1.36  
Year to date precipitation 3.67 1.36  
Snow  
Snow 0.00 in 0.10 in 4.00 in (1918)
Month to date snowfall 0.3 0.2  
Since 1 July snowfall 0.8 0.5  
Snow Depth 0.00 in    
Sea Level Pressure  
Sea Level Pressure 30.22 in    
Wind  
Wind Speed 10 mph (North)    
Max Wind Speed 21 mph    
Max Gust Speed 26 mph    
Visibility 10 miles    
Events      
T = Trace of Precipitation, MM = Missing Value Source: NWS Daily Summary

Daily Weather History Graph

Daily Weather History Graph

Search for Another Location

Airport or City:

Trip Planner

Search our weather history database for the weather conditions in past years. The results will help you decide how hot, cold, wet, or windy it might be!

Date:

Astronomy

Jan. 21, 2013 Rise Set
Actual Time 7:28 AM CST 5:50 PM CST
Civil Twilight 7:02 AM CST 6:16 PM CST
Nautical Twilight 6:32 AM CST 6:46 PM CST
Astronomical Twilight 6:03 AM CST 7:16 PM CST
Moon 1:32 PM CST (1/21) 2:57 AM CST (1/21)
Length of Visible Light 11h 14m
Length of Day
10h 21m
Waxing Gibbous, 75% of the Moon is Illuminated
Jan 21
Waxing Gibbous
Jan 26
Full
Feb 3
Last Quarter
Feb 10
New
Feb 17
First Quarter

Hourly Weather History & Observations

Time (CST) Temp. Windchill Dew Point Humidity Pressure Visibility Wind Dir Wind Speed Gust Speed Precip Events Conditions
12:53 AM 46.9 °F - 39.9 °F 77% 30.12 in 10.0 mi NW 6.9 mph - N/A   Clear
1:53 AM 44.1 °F 39.5 °F 39.0 °F 82% 30.12 in 10.0 mi NNW 8.1 mph - N/A   Clear
2:53 AM 44.6 °F 40.2 °F 39.2 °F 81% 30.14 in 10.0 mi NNW 8.1 mph - N/A   Clear
3:53 AM 45.0 °F 38.9 °F 39.9 °F 82% 30.14 in 10.0 mi North 12.7 mph - N/A   Clear
4:53 AM 44.1 °F 36.5 °F 37.0 °F 76% 30.16 in 10.0 mi North 17.3 mph - N/A   Clear
5:53 AM 41.0 °F 33.5 °F 32.0 °F 70% 30.19 in 10.0 mi North 13.8 mph - N/A   Clear
6:53 AM 41.0 °F 33.1 °F 27.0 °F 57% 30.22 in 10.0 mi NNE 15.0 mph 18.4 mph N/A   Partly Cloudy
7:53 AM 39.9 °F 32.9 °F 25.0 °F 55% 30.25 in 10.0 mi North 11.5 mph - N/A   Partly Cloudy
8:53 AM 41.0 °F 33.5 °F 24.1 °F 51% 30.26 in 10.0 mi North 13.8 mph - N/A   Partly Cloudy
9:53 AM 43.0 °F 35.7 °F 23.0 °F 45% 30.28 in 10.0 mi North 15.0 mph - N/A   Partly Cloudy
10:53 AM 45.0 °F 38.9 °F 23.0 °F 42% 30.30 in 10.0 mi North 12.7 mph - N/A   Partly Cloudy
11:53 AM 48.0 °F - 24.1 °F 39% 30.30 in 10.0 mi NNE 9.2 mph 18.4 mph N/A   Scattered Clouds
12:53 PM 50.0 °F - 26.1 °F 39% 30.27 in 10.0 mi North 11.5 mph 16.1 mph N/A   Mostly Cloudy
1:53 PM 53.1 °F - 28.0 °F 38% 30.25 in 10.0 mi North 12.7 mph - N/A   Mostly Cloudy
2:53 PM 55.0 °F - 28.9 °F 37% 30.24 in 10.0 mi NNW 9.2 mph - N/A   Mostly Cloudy
3:53 PM 55.0 °F - 28.9 °F 37% 30.23 in 10.0 mi North 8.1 mph - N/A   Scattered Clouds
4:53 PM 55.0 °F - 28.9 °F 37% 30.22 in 10.0 mi NNW 9.2 mph - N/A   Partly Cloudy
5:53 PM 50.0 °F - 28.0 °F 43% 30.22 in 10.0 mi North 9.2 mph - N/A   Partly Cloudy
6:53 PM 46.9 °F - 28.0 °F 48% 30.22 in 10.0 mi NNE 4.6 mph - N/A   Partly Cloudy
7:53 PM 46.0 °F 43.1 °F 27.0 °F 47% 30.23 in 10.0 mi NNW 5.8 mph - N/A   Clear
8:53 PM 44.1 °F 39.0 °F 27.0 °F 51% 30.25 in 10.0 mi North 9.2 mph - N/A   Clear
9:53 PM 41.0 °F 37.1 °F 26.1 °F 55% 30.25 in 10.0 mi NNE 5.8 mph - N/A   Clear
10:53 PM 41.0 °F 38.0 °F 25.0 °F 53% 30.25 in 10.0 mi NNE 4.6 mph - N/A   Clear
11:53 PM 41.0 °F 39.0 °F 25.0 °F 53% 30.25 in 10.0 mi NNE 3.5 mph - N/A   Clear